[[{"header":{"parameterUnit":"m.s-1","parameterCategory":2,"la1":30.2991,"la2":30.254,"lo1":-89.0895,"lo2":-89.0444,"dy":0.0017,"dx":0.0017,"nx":28,"ny":28,"refTime":"2025-04-07T03:00:00:Z","depth":"0","parameterNumber":2,"parameterNumberName":"U-component_of_CURRENTS"},"data":[0,0,0,0,0,0,0,0,0,0,0,0,0,0,0,0,0,0,0,0,0,0,0,0,0,0,0,0,0,0,0,0,0,0,0,0,0,0,0,0,0,0,0,0,0,0,0,0,0,0,0,0,0,0,0,0,0,0,0.1626,0.1626,0,0.1676,0.1677,0.1677,0.1679,0.1679,0.1678,0.1678,0.1695,0.1696,0.1697,0,0,0,0,0,0,0,0,0,0,0,0,0,0.1556,0.1557,0.1626,0.1626,0.1627,0.1676,0.1677,0.1677,0.168,0.1679,0.1678,0.1678,0.1694,0.1695,0.1697,0,0,0,0,0,0,0,0,0,0,0,0,0,0.1594,0.1558,0.1626,0.1634,0.1636,0.1676,0.1677,0.1678,0.168,0.1679,0.1678,0.1677,0.1694,0.1695,0.1697,0.1722,0,0,0.1701,0.1702,0,0,0,0,0,0,0,0,0.1592,0.1596,0.1632,0.1634,0.1635,0.1671,0.1658,0.1691,0.168,0.1663,0.1678,0.1677,0.1685,0.1687,0.1698,0.1723,0.1724,0.1701,0.1702,0.1703,0.1703,0,0,0,0,0,0,0,0.1589,0.1594,0.1645,0.1633,0.1635,0.1644,0.1649,0.1665,0.1677,0.1664,0.1664,0.1671,0.1685,0.1697,0.1698,0.1724,0.1701,0.1703,0.1704,0.1704,0.1771,0.1772,0,0,0,0,0,0,0.1584,0.1592,0.1644,0.1647,0.1612,0.1646,0.1651,0.166,0.1677,0.1679,0.1672,0.1671,0.1694,0.1697,0.1699,0.173,0.1703,0.1704,0.1705,0.177,0.1771,0.1772,0,0,0,0,0,0,0.1582,0.1588,0.1642,0.1621,0.1628,0.1648,0.1659,0.1662,0.1673,0.1683,0.1685,0.168,0.1694,0.1697,0.1721,0.173,0.1705,0.1706,0.1769,0.177,0.1771,0.1792,0,0,0,0,0,0,0.158,0.1587,0.1593,0.162,0.1629,0.1672,0.166,0.1663,0.1678,0.1678,0.1691,0.1692,0.1693,0.1719,0.1723,0.1732,0.1707,0.1768,0.1769,0.1771,0.179,0.1794,0.1797,0,0,0,0,0,0.1577,0.1592,0.1593,0.1599,0.1636,0.1673,0.1679,0.1689,0.1679,0.1694,0.1701,0.1691,0.1732,0.1721,0.1725,0.1735,0.1767,0.1769,0.1771,0.1789,0.1793,0.1797,0,0,0,0,0,0,0.1561,0.1594,0.1596,0.1618,0.1645,0.1673,0.1687,0.1692,0.1711,0.1709,0.1709,0.1711,0.1736,0.1736,0.1725,0.176,0.1745,0.1748,0.1758,0.1762,0.1765,0.1772,0.1709,0,0,0,0,0,0.1561,0.1584,0.1612,0.1631,0.1643,0.1664,0.1679,0.169,0.171,0.1717,0.1726,0.1735,0.1749,0.1755,0.1772,0.1793,0.1808,0.1801,0.1804,0.1807,0.1816,0.1849,0.1856,0.1778,0.1778,0.1778,0,0,0.1561,0.1582,0.1594,0.163,0.1648,0.1676,0.1671,0.1701,0.1722,0.1717,0.1744,0.1752,0.176,0.1785,0.1795,0.1784,0.1838,0.181,0.1812,0.182,0.1852,0.1859,0.1866,0.178,0.178,0.1779,0,0,0.1578,0.1589,0.1615,0.1638,0.1672,0.1689,0.1697,0.173,0.174,0.1774,0.177,0.1786,0.1811,0.1817,0.1822,0.1856,0.1859,0.1856,0.1875,0.1906,0.1913,0.1919,0.1951,0.196,0.1852,0.1853,0.1853,0,0.1577,0.1608,0.1628,0.1657,0.1674,0.1694,0.1721,0.1742,0.1778,0.1792,0.1786,0.1829,0.1828,0.1856,0.1862,0.1863,0.1884,0.1856,0.1911,0.1917,0.1923,0.1954,0.1964,0.1854,0.1854,0.1853,0.1853,0,0.1615,0.1635,0.1652,0.1692,0.1716,0.1745,0.1773,0.1798,0.181,0.183,0.1866,0.1875,0.1899,0.1896,0.1887,0.1924,0.1926,0.1914,0.1899,0.1932,0.1963,0.1972,0.1856,0.1855,0.1855,0.1854,0,0,0.1624,0.1669,0.1674,0.1689,0.1734,0.1758,0.1795,0.1835,0.1862,0.1891,0.1928,0.1942,0.1948,0.1955,0.1947,0.1964,0.2014,0.1955,0.1956,0.1985,0.2092,0.2118,0.2131,0.2012,0.2014,0.2015,0.2099,0,0.1646,0.169,0.1713,0.1753,0.1774,0.1801,0.1834,0.1872,0.1903,0.1947,0.1959,0.1994,0.197,0.1983,0.1999,0.2015,0.2039,0.1993,0.2058,0.206,0.2078,0.2143,0.2141,0.2218,0.2108,0.2109,0.211,0,0.1672,0.1697,0.1733,0.1774,0.1787,0.1815,0.1868,0.1903,0.1962,0.1989,0.2028,0.2048,0.2083,0.2055,0.211,0.2084,0.2093,0.2099,0.2103,0.2128,0.2104,0.2167,0.2239,0.2227,0.2125,0.2124,0.2122,0,0.1658,0.171,0.1733,0.1748,0.1801,0.1822,0.1854,0.1912,0.1957,0.2019,0.2068,0.2107,0.2147,0.2164,0.2186,0.2153,0.2253,0.2207,0.2242,0.2244,0.2257,0.2257,0.2324,0.2252,0.2252,0.2251,0.2251,0,0.1663,0.1681,0.1726,0.1737,0.1776,0.1814,0.1866,0.1906,0.1985,0.2045,0.2087,0.2152,0.2178,0.2237,0.2229,0.2287,0.2294,0.2271,0.2278,0.2264,0.2265,0.2265,0.2244,0.2255,0.2254,0.2253,0.2253,0,0.1633,0.1663,0.1693,0.1747,0.1766,0.1791,0.1875,0.1917,0.1994,0.2079,0.2107,0.2211,0.2291,0.2326,0.2372,0.2361,0.2358,0.2404,0.2392,0.2396,0.2397,0.2377,0.234,0.226,0.2455,0.2457,0.2458,0,0.1616,0.1629,0.1689,0.1708,0.1729,0.1778,0.1815,0.1905,0.1961,0.2112,0.2155,0.2278,0.2362,0.2471,0.2488,0.2523,0.2423,0.2516,0.2445,0.2427,0.2409,0.2277,0.22,0.247,0.2471,0.2472,0.2473,0,0.1582,0.1606,0.1631,0.1675,0.1711,0.1761,0.1825,0.1881,0.1991,0.2086,0.2214,0.2304,0.2448,0.2513,0.2582,0.2584,0.2444,0.2535,0.2522,0.2447,0.2302,0.2218,0.2381,0.2481,0.248,0.248,0.2479,0.2479,0.1551,0.1561,0.1598,0.1637,0.1679,0.1729,0.1756,0.1848,0.1949,0.2081,0.2199,0.2331,0.25,0.2617,0.2599,0.262,0.2512,0.2568,0.2553,0.2425,0.2327,0.2515,0.2614,0.2614,0.2614,0.2614,0.2614,0,0.1503,0.1525,0.1559,0.16,0.1623,0.1669,0.1748,0.1777,0.1868,0.2041,0.2159,0.2389,0.2517,0.2614,0.2726,0.2666,0.2493,0.2603,0.2426,0.2349,0.2554,0.2537,0.2616,0.2616,0.2616,0.2616,0.2616,0.2616,0.1478,0.1486,0.151,0.153,0.156,0.1576,0.1607,0.1675,0.179,0.1971,0.2125,0.2271,0.258,0.283,0.2847,0.2759,0.2512,0.2446,0.2353,0.2547,0.2541,0.2536,0.2515,0.2589,0.2589,0.2067,0.2064,0.2062]},{"header":{"parameterUnit":"m.s-1","parameterCategory":2,"la1":30.2991,"la2":30.254,"lo1":-89.0895,"lo2":-89.0444,"dy":0.0017,"dx":0.0017,"nx":28,"ny":28,"refTime":"2025-04-07T03:00:00:Z","depth":"0","parameterNumber":3,"parameterNumberName":"V-component_of_CURRENTS"},"data":[0,0,0,0,0,0,0,0,0,0,0,0,0,0,0,0,0,0,0,0,0,0,0,0,0,0,0,0,0,0,0,0,0,0,0,0,0,0,0,0,0,0,0,0,0,0,0,0,0,0,0,0,0,0,0,0,0,0,-0.0473,-0.0474,0,-0.0528,-0.0529,-0.0529,-0.0562,-0.0562,-0.0563,-0.0563,-0.0575,-0.0575,-0.0575,0,0,0,0,0,0,0,0,0,0,0,0,0,-0.0459,-0.0458,-0.0473,-0.0474,-0.0475,-0.0528,-0.0529,-0.0529,-0.0562,-0.0562,-0.0563,-0.0563,-0.0575,-0.0575,-0.0575,0,0,0,0,0,0,0,0,0,0,0,0,0,-0.0481,-0.0458,-0.0473,-0.05,-0.0504,-0.0528,-0.0529,-0.0529,-0.0562,-0.0562,-0.0563,-0.0564,-0.0575,-0.0575,-0.0575,-0.056,0,0,-0.0574,-0.0574,0,0,0,0,0,0,0,0,-0.0479,-0.0481,-0.0495,-0.0499,-0.0502,-0.0542,-0.0528,-0.0538,-0.0561,-0.0536,-0.0563,-0.0564,-0.0562,-0.0563,-0.0567,-0.056,-0.0561,-0.0574,-0.0574,-0.0574,-0.0574,0,0,0,0,0,0,0,-0.0478,-0.0479,-0.0491,-0.0496,-0.0501,-0.0532,-0.0534,-0.053,-0.0541,-0.0538,-0.0542,-0.0553,-0.0563,-0.0567,-0.0568,-0.0561,-0.0574,-0.0574,-0.0574,-0.0574,-0.0517,-0.0516,0,0,0,0,0,0,-0.0474,-0.0477,-0.049,-0.0493,-0.0496,-0.0531,-0.0534,-0.0526,-0.0542,-0.0546,-0.0552,-0.0554,-0.0567,-0.0568,-0.0568,-0.053,-0.0574,-0.0574,-0.0574,-0.0519,-0.0517,-0.0516,0,0,0,0,0,0,-0.0473,-0.0473,-0.0488,-0.0491,-0.0495,-0.0531,-0.0521,-0.0526,-0.0531,-0.0554,-0.0557,-0.0552,-0.0568,-0.0568,-0.056,-0.0532,-0.0574,-0.0574,-0.0521,-0.0518,-0.0516,-0.0467,0,0,0,0,0,0,-0.0472,-0.0472,-0.0458,-0.049,-0.0495,-0.049,-0.0521,-0.0527,-0.0539,-0.0542,-0.0554,-0.0556,-0.0568,-0.056,-0.056,-0.0532,-0.0574,-0.0522,-0.052,-0.0517,-0.047,-0.0463,-0.0458,0,0,0,0,0,-0.047,-0.0448,-0.0456,-0.0458,-0.0476,-0.049,-0.0494,-0.0521,-0.0538,-0.0529,-0.0543,-0.0556,-0.0543,-0.0559,-0.0559,-0.053,-0.0524,-0.052,-0.0517,-0.0473,-0.0465,-0.0458,0,0,0,0,0,0,-0.0438,-0.0451,-0.046,-0.0443,-0.0461,-0.0496,-0.0492,-0.0515,-0.052,-0.0523,-0.0544,-0.0546,-0.0527,-0.0533,-0.0551,-0.0505,-0.0532,-0.0529,-0.0499,-0.0491,-0.0485,-0.0482,-0.0573,0,0,0,0,0,-0.0423,-0.0405,-0.0432,-0.0418,-0.0423,-0.0457,-0.0465,-0.0486,-0.0502,-0.0506,-0.0515,-0.0518,-0.0512,-0.0507,-0.0505,-0.0481,-0.0505,-0.046,-0.0453,-0.0448,-0.0445,-0.0463,-0.0459,-0.0505,-0.0505,-0.0505,0,0,-0.0408,-0.0413,-0.0404,-0.041,-0.0424,-0.0414,-0.0462,-0.0471,-0.0461,-0.0504,-0.0482,-0.0498,-0.0502,-0.0478,-0.0469,-0.048,-0.0446,-0.0444,-0.044,-0.0439,-0.046,-0.0456,-0.0452,-0.0503,-0.0504,-0.0504,0,0,-0.0365,-0.037,-0.0339,-0.0347,-0.0367,-0.0385,-0.0385,-0.0413,-0.0421,-0.0412,-0.0437,-0.044,-0.0427,-0.0429,-0.0427,-0.0382,-0.0415,-0.0373,-0.0335,-0.0353,-0.035,-0.0348,-0.0371,-0.0371,-0.0366,-0.0366,-0.0366,0,-0.0344,-0.0311,-0.0335,-0.0312,-0.0313,-0.0365,-0.0339,-0.0351,-0.0373,-0.0375,-0.0394,-0.0392,-0.0401,-0.0378,-0.0364,-0.0367,-0.0388,-0.0367,-0.0347,-0.0345,-0.0343,-0.0368,-0.0369,-0.0363,-0.0363,-0.0364,-0.0364,0,-0.0282,-0.0257,-0.0243,-0.0223,-0.0225,-0.0217,-0.0241,-0.0244,-0.0266,-0.0285,-0.0279,-0.0304,-0.0306,-0.0303,-0.0321,-0.0303,-0.0326,-0.0342,-0.0371,-0.0336,-0.0364,-0.0366,-0.0359,-0.036,-0.0361,-0.0362,0,0,-0.0226,-0.02,-0.0195,-0.0173,-0.018,-0.0177,-0.0159,-0.0161,-0.0153,-0.018,-0.017,-0.0175,-0.0213,-0.0214,-0.024,-0.0256,-0.0266,-0.029,-0.0292,-0.0322,-0.0312,-0.0334,-0.0339,-0.0284,-0.0284,-0.0284,-0.0337,0,-0.0169,-0.0106,-0.0111,-0.0058,-0.0029,-0.0066,-0.0045,-0.0058,-0.0079,-0.0083,-0.0126,-0.0125,-0.017,-0.0176,-0.0199,-0.025,-0.0268,-0.0251,-0.0335,-0.0337,-0.0368,-0.0341,-0.0352,-0.0401,-0.0339,-0.034,-0.034,0,-0.0101,-0.007,-0.0005,0.0024,0.0032,0.005,0.0058,0.0067,0.0041,0.0022,-0.0004,-0.0044,-0.0072,-0.0117,-0.0192,-0.0181,-0.0238,-0.0284,-0.0288,-0.0327,-0.0362,-0.0425,-0.0407,-0.056,-0.0343,-0.0343,-0.0343,0,-0.005,0.0004,0.0057,0.0068,0.0092,0.0106,0.011,0.0097,0.0113,0.008,0.0083,0.0028,0.0005,-0.0074,-0.0174,-0.0182,-0.0265,-0.0288,-0.0363,-0.0366,-0.0401,-0.0406,-0.0547,-0.0337,-0.0337,-0.0337,-0.0337,0,0.0016,0.0058,0.0083,0.011,0.0165,0.0155,0.0198,0.0186,0.0184,0.0212,0.0136,0.0144,0.0015,-0.0049,-0.015,-0.0262,-0.0248,-0.0353,-0.0377,-0.0383,-0.0386,-0.0541,-0.0635,-0.0339,-0.0339,-0.0338,-0.0338,0,0.007,0.0087,0.0147,0.0179,0.0192,0.0226,0.026,0.0289,0.0271,0.0302,0.0297,0.0232,0.0141,0.001,-0.0122,-0.0222,-0.0428,-0.0374,-0.0376,-0.04,-0.0611,-0.0701,-0.088,-0.0943,-0.0465,-0.0466,-0.0466,0,0.0107,0.0144,0.0197,0.0232,0.0248,0.0293,0.0328,0.033,0.0368,0.0364,0.0391,0.0311,0.0273,0.0059,-0.0139,-0.0322,-0.0462,-0.0455,-0.0471,-0.0624,-0.0741,-0.0812,-0.0856,-0.0501,-0.0502,-0.0503,-0.0503,0,0.0173,0.0185,0.0231,0.0302,0.0347,0.0407,0.0456,0.0503,0.0509,0.0535,0.0554,0.0522,0.0304,0.0111,-0.0156,-0.0296,-0.0584,-0.0475,-0.0634,-0.0781,-0.0867,-0.0938,-0.0473,-0.051,-0.0509,-0.0509,-0.0508,-0.0508,0.0217,0.0258,0.0312,0.0382,0.0439,0.0516,0.0577,0.0632,0.0702,0.0753,0.0696,0.0674,0.0355,-0.0011,-0.023,-0.0645,-0.0642,-0.076,-0.0856,-0.0911,-0.0979,-0.0529,-0.0592,-0.0592,-0.0592,-0.0592,-0.0591,0,0.0276,0.0319,0.0388,0.0472,0.0548,0.0563,0.0665,0.0733,0.0827,0.086,0.0874,0.0687,0.0305,-0.0093,-0.0645,-0.0947,-0.1067,-0.1135,-0.1246,-0.127,-0.0869,-0.0876,-0.1003,-0.1002,-0.1002,-0.1002,-0.1002,-0.1002,0.0308,0.0385,0.0421,0.0555,0.0614,0.0727,0.0793,0.0886,0.0945,0.0984,0.0954,0.0891,0.0534,-0.0467,-0.117,-0.134,-0.1561,-0.1637,-0.1732,-0.1474,-0.1447,-0.142,-0.1449,-0.1693,-0.1694,-0.2084,-0.2088,-0.2091]}],[{"header":{"parameterUnit":"m.s-1","parameterCategory":2,"la1":30.2991,"la2":30.254,"lo1":-89.0895,"lo2":-89.0444,"dy":0.0017,"dx":0.0017,"nx":28,"ny":28,"refTime":"2025-04-07T03:00:00:Z","depth":"2","parameterNumber":2,"parameterNumberName":"U-component_of_CURRENTS"},"data":[0,0,0,0,0,0,0,0,0,0,0,0,0,0,0,0,0,0,0,0,0,0,0,0,0,0,0,0,0,0,0,0,0,0,0,0,0,0,0,0,0,0,0,0,0,0,0,0,0,0,0,0,0,0,0,0,0,0,0.1586,0.1587,0,0.1633,0.1633,0.1634,0.1637,0.1636,0.1636,0.1635,0.1653,0.1654,0.1655,0,0,0,0,0,0,0,0,0,0,0,0,0,0.1517,0.1518,0.1586,0.1587,0.1588,0.1633,0.1633,0.1634,0.1637,0.1636,0.1636,0.1635,0.1653,0.1654,0.1655,0,0,0,0,0,0,0,0,0,0,0,0,0,0.1552,0.1518,0.1586,0.1595,0.1597,0.1633,0.1633,0.1634,0.1637,0.1636,0.1636,0.1635,0.1652,0.1654,0.1655,0.1676,0,0,0.1659,0.166,0,0,0,0,0,0,0,0,0.155,0.1555,0.1593,0.1595,0.1596,0.1629,0.1615,0.1647,0.1637,0.1621,0.1635,0.1635,0.1644,0.1646,0.1655,0.1677,0.1677,0.1659,0.166,0.166,0.1661,0,0,0,0,0,0,0,0.1548,0.1553,0.1604,0.1594,0.1596,0.1603,0.1607,0.1621,0.1634,0.1622,0.1623,0.163,0.1644,0.1653,0.1655,0.1678,0.1659,0.166,0.1661,0.1662,0.1723,0.1724,0,0,0,0,0,0,0.1544,0.1551,0.1602,0.1605,0.1572,0.1605,0.1609,0.1618,0.1634,0.1637,0.163,0.163,0.1652,0.1654,0.1656,0.1686,0.166,0.1662,0.1662,0.1722,0.1723,0.1724,0,0,0,0,0,0,0.1543,0.1548,0.16,0.1579,0.1587,0.1607,0.1617,0.162,0.1631,0.1641,0.1642,0.1638,0.1651,0.1654,0.1679,0.1687,0.1662,0.1663,0.1721,0.1722,0.1723,0.1744,0,0,0,0,0,0,0.154,0.1548,0.1554,0.1579,0.1588,0.1629,0.1618,0.1621,0.1637,0.1636,0.1649,0.165,0.1651,0.1677,0.168,0.1688,0.1664,0.172,0.1722,0.1723,0.1742,0.1746,0.1749,0,0,0,0,0,0.1538,0.1552,0.1554,0.156,0.1595,0.163,0.1635,0.1646,0.1638,0.1652,0.166,0.1649,0.1689,0.1679,0.1682,0.1691,0.1719,0.1721,0.1723,0.1741,0.1745,0.1749,0,0,0,0,0,0,0.1521,0.1554,0.1557,0.1578,0.1605,0.1631,0.1644,0.165,0.1668,0.1667,0.1666,0.1669,0.1693,0.1693,0.1682,0.1714,0.17,0.1703,0.1712,0.1717,0.172,0.1727,0.1666,0,0,0,0,0,0.1521,0.1543,0.1572,0.159,0.1602,0.1622,0.1637,0.1649,0.1668,0.1675,0.1683,0.1692,0.1705,0.1711,0.1726,0.1746,0.176,0.1752,0.1755,0.1758,0.1767,0.1799,0.1807,0.173,0.173,0.173,0,0,0.152,0.1542,0.1553,0.1589,0.1607,0.1633,0.1629,0.1659,0.1679,0.1674,0.1701,0.1709,0.1715,0.1738,0.1748,0.1738,0.1789,0.1761,0.1763,0.1771,0.1802,0.181,0.1816,0.1732,0.1731,0.1731,0,0,0.1535,0.1548,0.1572,0.1594,0.1629,0.1646,0.1654,0.1686,0.1696,0.173,0.1726,0.1743,0.1765,0.177,0.1774,0.1806,0.1808,0.1805,0.1824,0.1855,0.1862,0.1868,0.1899,0.1907,0.1802,0.1802,0.1802,0,0.1534,0.1563,0.1584,0.1612,0.1629,0.165,0.1676,0.1696,0.1732,0.1746,0.1742,0.1783,0.1781,0.1807,0.1812,0.1813,0.1833,0.1806,0.186,0.1866,0.1871,0.1902,0.1911,0.1803,0.1803,0.1803,0.1803,0,0.1568,0.1588,0.1604,0.1643,0.1666,0.1695,0.1722,0.1748,0.1761,0.1781,0.1817,0.1826,0.185,0.1845,0.1837,0.1872,0.1875,0.1863,0.1848,0.188,0.1911,0.192,0.1805,0.1805,0.1804,0.1804,0,0,0.1575,0.1619,0.1624,0.164,0.1684,0.1708,0.1743,0.1782,0.1809,0.1839,0.1875,0.1888,0.1897,0.1902,0.1895,0.1912,0.1961,0.1903,0.1904,0.1933,0.2037,0.2059,0.207,0.196,0.1961,0.1963,0.2044,0,0.1595,0.1637,0.1659,0.1698,0.1719,0.1747,0.1778,0.1816,0.1848,0.1891,0.1905,0.1939,0.1917,0.1931,0.1947,0.1963,0.1986,0.1941,0.2004,0.2006,0.2019,0.2082,0.1916,0.1976,0.2052,0.2054,0.2055,0,0.1619,0.1644,0.1678,0.1719,0.1732,0.1759,0.1813,0.1847,0.1905,0.1933,0.1973,0.1993,0.2028,0.2002,0.2056,0.203,0.2039,0.2045,0.2049,0.2069,0.2045,0.1956,0.199,0.207,0.2069,0.2068,0.2067,0,0.1605,0.1656,0.1679,0.1694,0.1746,0.1768,0.18,0.1857,0.1901,0.1964,0.2012,0.2051,0.2091,0.2108,0.213,0.2098,0.2194,0.2151,0.2181,0.2182,0.2054,0.2042,0.2195,0.2195,0.2194,0.2194,0.2194,0,0.161,0.1628,0.1674,0.1685,0.1724,0.1761,0.1813,0.1853,0.1931,0.1989,0.2032,0.2094,0.2122,0.2179,0.2171,0.2225,0.2234,0.2209,0.2214,0.2058,0.2046,0.2132,0.2123,0.2197,0.2197,0.2196,0.2195,0,0.1582,0.1612,0.1642,0.1695,0.1715,0.1741,0.1824,0.1864,0.1941,0.2023,0.2051,0.2152,0.2228,0.2263,0.2309,0.2296,0.2326,0.2336,0.2159,0.2144,0.2277,0.2269,0.2378,0.2379,0.2381,0.2382,0.2383,0,0.1566,0.1579,0.1639,0.1658,0.168,0.1729,0.1765,0.1854,0.1908,0.2055,0.2095,0.2215,0.229,0.2394,0.2386,0.2412,0.2399,0.2266,0.2176,0.2307,0.2301,0.229,0.228,0.2007,0.2005,0.2003,0.2001,0,0.1534,0.1559,0.1583,0.1627,0.1663,0.1711,0.1774,0.1827,0.1934,0.2023,0.2144,0.2226,0.2342,0.2312,0.2367,0.2344,0.2249,0.2235,0.2422,0.2001,0.1968,0.1958,0.1958,0.1985,0.1987,0.1988,0.1989,0.199,0.1505,0.1515,0.1552,0.159,0.1632,0.1678,0.1703,0.1783,0.1875,0.1971,0.2095,0.2144,0.2193,0.2203,0.2158,0.2113,0.2253,0.2126,0.2126,0.2129,0.2087,0.206,0.2086,0.2088,0.209,0.2092,0.2093,0,0.1456,0.148,0.1513,0.1553,0.157,0.162,0.1693,0.1695,0.1765,0.1866,0.1952,0.1845,0.188,0.1905,0.1835,0.1869,0.1789,0.1778,0.1639,0.166,0.1678,0.1604,0.148,0.1477,0.1475,0.1472,0,0,0.1431,0.1437,0.1459,0.1474,0.1505,0.1508,0.1536,0.155,0.1598,0.1608,0.1622,0.178,0.1873,0.1635,0.1636,0.1539,0.1569,0.1484,0.1988,0.1847,0.186,0.1911,0.1829,0,0,0,0,0]},{"header":{"parameterUnit":"m.s-1","parameterCategory":2,"la1":30.2991,"la2":30.254,"lo1":-89.0895,"lo2":-89.0444,"dy":0.0017,"dx":0.0017,"nx":28,"ny":28,"refTime":"2025-04-07T03:00:00:Z","depth":"2","parameterNumber":3,"parameterNumberName":"V-component_of_CURRENTS"},"data":[0,0,0,0,0,0,0,0,0,0,0,0,0,0,0,0,0,0,0,0,0,0,0,0,0,0,0,0,0,0,0,0,0,0,0,0,0,0,0,0,0,0,0,0,0,0,0,0,0,0,0,0,0,0,0,0,0,0,-0.0323,-0.0324,0,-0.0372,-0.0372,-0.0373,-0.0408,-0.0409,-0.0409,-0.041,-0.043,-0.043,-0.043,0,0,0,0,0,0,0,0,0,0,0,0,0,-0.031,-0.0309,-0.0323,-0.0324,-0.0325,-0.0372,-0.0372,-0.0373,-0.0408,-0.0409,-0.0409,-0.041,-0.043,-0.043,-0.043,0,0,0,0,0,0,0,0,0,0,0,0,0,-0.0329,-0.0309,-0.0323,-0.0351,-0.0355,-0.0372,-0.0372,-0.0373,-0.0408,-0.0409,-0.041,-0.0411,-0.043,-0.043,-0.043,-0.0409,0,0,-0.043,-0.043,0,0,0,0,0,0,0,0,-0.0328,-0.0329,-0.0346,-0.0349,-0.0353,-0.0389,-0.0376,-0.0385,-0.0407,-0.0383,-0.041,-0.0411,-0.0416,-0.0417,-0.0418,-0.041,-0.0411,-0.043,-0.043,-0.043,-0.0429,0,0,0,0,0,0,0,-0.0326,-0.0327,-0.0338,-0.0347,-0.0352,-0.038,-0.0382,-0.0378,-0.0389,-0.0385,-0.0389,-0.0401,-0.0417,-0.0418,-0.0419,-0.0411,-0.043,-0.043,-0.0429,-0.0429,-0.0381,-0.038,0,0,0,0,0,0,-0.0325,-0.0325,-0.0337,-0.034,-0.0348,-0.0379,-0.0382,-0.0373,-0.039,-0.0395,-0.04,-0.0402,-0.0418,-0.0419,-0.042,-0.039,-0.043,-0.0429,-0.0429,-0.0382,-0.0381,-0.0379,0,0,0,0,0,0,-0.0324,-0.0324,-0.0335,-0.0339,-0.0343,-0.0378,-0.0368,-0.0373,-0.038,-0.0402,-0.0406,-0.0402,-0.0419,-0.042,-0.0416,-0.0392,-0.0429,-0.0429,-0.0383,-0.0382,-0.038,-0.0335,0,0,0,0,0,0,-0.0323,-0.0323,-0.0312,-0.0338,-0.0343,-0.0338,-0.0367,-0.0374,-0.0388,-0.0391,-0.0405,-0.0408,-0.042,-0.0416,-0.0416,-0.0392,-0.0429,-0.0385,-0.0383,-0.0381,-0.0338,-0.0332,-0.0326,0,0,0,0,0,-0.0322,-0.03,-0.031,-0.0312,-0.0326,-0.0337,-0.0341,-0.0368,-0.0387,-0.0379,-0.0395,-0.0408,-0.0401,-0.0415,-0.0415,-0.0391,-0.0386,-0.0383,-0.0381,-0.034,-0.0333,-0.0326,0,0,0,0,0,0,-0.0292,-0.0303,-0.0314,-0.0298,-0.0315,-0.0345,-0.0342,-0.0365,-0.0371,-0.0377,-0.0397,-0.04,-0.0386,-0.0393,-0.0407,-0.0369,-0.0394,-0.0391,-0.0363,-0.0356,-0.035,-0.0349,-0.0429,0,0,0,0,0,-0.0279,-0.0262,-0.0287,-0.0274,-0.0279,-0.031,-0.0318,-0.034,-0.0355,-0.036,-0.0371,-0.0376,-0.0372,-0.037,-0.0368,-0.0347,-0.037,-0.033,-0.0324,-0.0319,-0.0317,-0.0336,-0.0332,-0.037,-0.037,-0.037,0,0,-0.0265,-0.0271,-0.0261,-0.0267,-0.028,-0.027,-0.0315,-0.0326,-0.0318,-0.0359,-0.0343,-0.0359,-0.0363,-0.0343,-0.0336,-0.0347,-0.0319,-0.0316,-0.0312,-0.0312,-0.0333,-0.0329,-0.0326,-0.0369,-0.0369,-0.0369,0,0,-0.0225,-0.023,-0.0201,-0.0209,-0.023,-0.0246,-0.0248,-0.0274,-0.0283,-0.0277,-0.0303,-0.0309,-0.0297,-0.0301,-0.03,-0.026,-0.0291,-0.0253,-0.0219,-0.0238,-0.0235,-0.0233,-0.0257,-0.0258,-0.0247,-0.0246,-0.0246,0,-0.0207,-0.0176,-0.0197,-0.0177,-0.0179,-0.0229,-0.0206,-0.0217,-0.024,-0.0244,-0.0263,-0.0265,-0.0275,-0.0256,-0.0244,-0.0247,-0.0267,-0.0247,-0.0232,-0.023,-0.0229,-0.0254,-0.0255,-0.0244,-0.0244,-0.0244,-0.0245,0,-0.0149,-0.0127,-0.0113,-0.0096,-0.0098,-0.0092,-0.0115,-0.012,-0.0144,-0.0162,-0.0162,-0.0186,-0.019,-0.0189,-0.0205,-0.0192,-0.0213,-0.0227,-0.0253,-0.0223,-0.0251,-0.0253,-0.024,-0.0241,-0.0242,-0.0243,0,0,-0.0098,-0.0073,-0.0069,-0.005,-0.0059,-0.0056,-0.0042,-0.0045,-0.004,-0.0068,-0.0061,-0.0069,-0.0106,-0.0108,-0.0134,-0.015,-0.0163,-0.0182,-0.0184,-0.0212,-0.021,-0.0232,-0.0237,-0.0179,-0.0179,-0.0179,-0.0233,0,-0.0046,0.0011,0.0006,0.0054,0.008,0.0044,0.0063,0.0048,0.0027,0.0022,-0.0022,-0.0022,-0.0066,-0.0074,-0.0098,-0.0147,-0.0167,-0.0148,-0.0229,-0.0231,-0.0261,-0.0239,-0.0212,-0.0258,-0.0236,-0.0236,-0.0236,0,0.0015,0.0044,0.0102,0.0128,0.0136,0.0152,0.0157,0.0164,0.0138,0.0119,0.0091,0.0053,0.0023,-0.002,-0.0096,-0.0083,-0.014,-0.0184,-0.0188,-0.0226,-0.0257,-0.0284,-0.0263,-0.024,-0.024,-0.024,-0.0239,0,0.0061,0.011,0.0157,0.0166,0.0189,0.02,0.0203,0.019,0.0206,0.0172,0.0175,0.0119,0.0096,0.0018,-0.008,-0.0088,-0.017,-0.0191,-0.0265,-0.0268,-0.0269,-0.0272,-0.0242,-0.0242,-0.0242,-0.0242,-0.0241,0,0.0119,0.0156,0.018,0.0204,0.0254,0.0245,0.0285,0.0273,0.0271,0.0297,0.0223,0.023,0.0104,0.004,-0.0058,-0.0169,-0.0155,-0.0258,-0.028,-0.0252,-0.0252,-0.0256,-0.0257,-0.0244,-0.0243,-0.0243,-0.0242,0,0.0166,0.0181,0.0236,0.0266,0.0279,0.0309,0.0344,0.0372,0.0354,0.0384,0.0379,0.0316,0.0225,0.0097,-0.0033,-0.0131,-0.0239,-0.0281,-0.0244,-0.0262,-0.0332,-0.033,-0.0369,-0.037,-0.0371,-0.0372,-0.0373,0,0.0197,0.0232,0.0282,0.0316,0.0331,0.0373,0.0407,0.041,0.0448,0.0444,0.0471,0.0392,0.0353,0.0143,-0.0046,-0.0224,-0.0247,-0.0323,-0.0332,-0.0326,-0.0344,-0.034,-0.0337,-0.0317,-0.0317,-0.0317,-0.0318,0,0.0256,0.0269,0.0312,0.0381,0.0424,0.0484,0.0532,0.0579,0.0587,0.0611,0.0629,0.0596,0.0387,0.0209,-0.0052,-0.0173,-0.0296,-0.0332,-0.0328,-0.0289,-0.0281,-0.0298,-0.0295,-0.0319,-0.0319,-0.0319,-0.0319,-0.0319,0.0296,0.0336,0.0389,0.0457,0.0513,0.059,0.0651,0.0707,0.0776,0.0823,0.0765,0.0723,0.0496,0.0178,-0.0057,-0.0307,-0.0299,-0.0377,-0.0375,-0.0372,-0.0357,-0.0351,-0.0399,-0.04,-0.04,-0.04,-0.04,0,0.0353,0.0395,0.0462,0.0545,0.0623,0.0635,0.0738,0.0809,0.0903,0.0916,0.0926,0.0738,0.0506,0.0241,-0.0126,-0.0349,-0.036,-0.0419,-0.0378,-0.0375,-0.0373,-0.0356,-0.04,-0.04,-0.0401,-0.0401,0,0,0.0384,0.0461,0.0497,0.0631,0.0688,0.0806,0.0872,0.097,0.1016,0.1056,0.1022,0.0934,0.0597,0.0342,0.003,-0.0186,-0.023,-0.023,-0.0206,-0.0119,-0.0114,-0.0325,-0.0293,0,0,0,0,0]}],[{"header":{"parameterUnit":"m.s-1","parameterCategory":2,"la1":30.2991,"la2":30.254,"lo1":-89.0895,"lo2":-89.0444,"dy":0.0017,"dx":0.0017,"nx":28,"ny":28,"refTime":"2025-04-07T03:00:00:Z","depth":"4","parameterNumber":2,"parameterNumberName":"U-component_of_CURRENTS"},"data":[0,0,0,0,0,0,0,0,0,0,0,0,0,0,0,0,0,0,0,0,0,0,0,0,0,0,0,0,0,0,0,0,0,0,0,0,0,0,0,0,0,0,0,0,0,0,0,0,0,0,0,0,0,0,0,0,0,0,0.0821,0.0821,0,0.0882,0.0883,0.0885,0.0971,0.0972,0.0972,0.0973,0.1077,0.1079,0.1081,0,0,0,0,0,0,0,0,0,0,0,0,0,0.0772,0.0774,0.0821,0.0821,0.0821,0.0882,0.0883,0.0885,0.0971,0.0972,0.0972,0.0973,0.1076,0.1079,0.1082,0,0,0,0,0,0,0,0,0,0,0,0,0,0.0819,0.0774,0.0821,0.0863,0.0867,0.0881,0.0884,0.0886,0.0971,0.0972,0.0972,0.0973,0.1075,0.1079,0.1082,0.1087,0,0,0.1092,0.1094,0,0,0,0,0,0,0,0,0.0816,0.0822,0.0857,0.086,0.0864,0.0911,0.0904,0.0952,0.0971,0.0942,0.0973,0.0974,0.1018,0.1026,0.105,0.1092,0.1096,0.1093,0.1095,0.1096,0.1097,0,0,0,0,0,0,0,0.0813,0.082,0.0856,0.0857,0.0861,0.0876,0.0885,0.0914,0.0984,0.0945,0.0949,0.0939,0.1022,0.1046,0.1053,0.1098,0.1093,0.1096,0.1098,0.1099,0.1244,0.1246,0,0,0,0,0,0,0.0785,0.0817,0.0854,0.0856,0.083,0.0875,0.0886,0.0903,0.0983,0.0992,0.0938,0.0942,0.104,0.1049,0.1057,0.1159,0.1096,0.1099,0.1101,0.1242,0.1245,0.1247,0,0,0,0,0,0,0.0784,0.0788,0.0851,0.0828,0.0836,0.0874,0.0894,0.0904,0.0964,0.0975,0.0988,0.0991,0.1041,0.1052,0.1112,0.116,0.1101,0.1104,0.124,0.1243,0.1246,0.1305,0,0,0,0,0,0,0.0783,0.0789,0.0807,0.0827,0.0836,0.0885,0.0892,0.0904,0.0949,0.0957,0.1023,0.1032,0.1043,0.1107,0.1115,0.1164,0.1107,0.1238,0.1242,0.1245,0.1301,0.1309,0.1317,0,0,0,0,0,0.0781,0.0796,0.0808,0.0812,0.0856,0.0885,0.0894,0.0928,0.0951,0.0987,0.1028,0.1032,0.1135,0.1111,0.1121,0.1171,0.1236,0.1241,0.1244,0.1297,0.1308,0.1316,0,0,0,0,0,0,0.0782,0.0805,0.082,0.0841,0.087,0.0896,0.0927,0.0949,0.1011,0.103,0.1052,0.1064,0.1137,0.1143,0.1116,0.1223,0.1188,0.1194,0.1224,0.1235,0.1242,0.1238,0.111,0,0,0,0,0,0.0786,0.0813,0.0832,0.0854,0.0875,0.0911,0.0932,0.0957,0.0996,0.1028,0.1067,0.1111,0.1156,0.1186,0.1221,0.1276,0.1275,0.1316,0.1324,0.1331,0.1334,0.1364,0.1374,0.126,0.126,0.126,0,0,0.0796,0.0805,0.0825,0.0856,0.0891,0.0938,0.0932,0.0976,0.1023,0.1026,0.1118,0.1143,0.1177,0.1243,0.1276,0.1258,0.1366,0.1336,0.1341,0.1341,0.1369,0.138,0.139,0.1263,0.1262,0.1262,0,0,0.0822,0.0842,0.0882,0.0911,0.0948,0.0969,0.0989,0.1037,0.1077,0.1145,0.1163,0.1213,0.1286,0.1313,0.1337,0.141,0.1407,0.143,0.147,0.15,0.1509,0.1517,0.1538,0.1548,0.1434,0.1434,0.1434,0,0.0837,0.0881,0.0897,0.0942,0.0968,0.0992,0.1046,0.1088,0.1148,0.1176,0.1186,0.1293,0.132,0.1393,0.142,0.143,0.144,0.1431,0.1509,0.1517,0.1525,0.1544,0.1554,0.1437,0.1437,0.1436,0.1436,0,0.0892,0.0939,0.0966,0.1035,0.1067,0.1113,0.1155,0.1204,0.1245,0.1274,0.1356,0.1388,0.1446,0.1469,0.1472,0.1543,0.1533,0.1515,0.1481,0.1539,0.1556,0.1565,0.1442,0.1441,0.144,0.1439,0,0,0.0909,0.0991,0.1007,0.1049,0.1119,0.1147,0.1226,0.1288,0.1336,0.1397,0.1461,0.1535,0.154,0.1565,0.1575,0.1601,0.1665,0.1585,0.1585,0.16,0.1731,0.1637,0.1637,0.1662,0.1664,0.1666,0.1724,0,0.0959,0.104,0.1072,0.1166,0.1218,0.1257,0.1319,0.1373,0.1422,0.1485,0.1523,0.1589,0.1581,0.1611,0.1641,0.1659,0.1691,0.165,0.1677,0.1678,0.1582,0.1645,0.1671,0.1731,0.1733,0.1734,0.1735,0,0.1013,0.1054,0.1145,0.1222,0.125,0.1306,0.1387,0.1444,0.1522,0.156,0.1621,0.1648,0.1714,0.1689,0.1757,0.1733,0.1742,0.1747,0.1749,0.1644,0.16,0.1659,0.1751,0.175,0.1749,0.1748,0.1747,0,0.1003,0.1107,0.1171,0.1204,0.1296,0.1343,0.1392,0.147,0.1522,0.1607,0.1654,0.172,0.1768,0.1793,0.1817,0.1795,0.1875,0.1841,0.1766,0.1759,0.1798,0.1788,0.1887,0.1887,0.1887,0.1887,0.1886,0,0.1026,0.1085,0.1174,0.121,0.1281,0.1345,0.1424,0.1478,0.1567,0.1622,0.1689,0.1739,0.1799,0.1848,0.1848,0.1839,0.1905,0.1784,0.1772,0.1823,0.1816,0.1804,0.1794,0.1889,0.1888,0.1888,0.1887,0,0.1009,0.1073,0.1148,0.1246,0.1281,0.1329,0.1438,0.1484,0.1577,0.1653,0.1687,0.1784,0.1837,0.1884,0.1929,0.1876,0.1876,0.1856,0.1923,0.1911,0.1731,0.1723,0.1769,0.1766,0.1764,0.1762,0.176,0,0.1002,0.1042,0.1154,0.119,0.124,0.1321,0.1369,0.1475,0.1521,0.166,0.1684,0.1788,0.1833,0.1825,0.1876,0.1879,0.1855,0.1842,0.1769,0.1737,0.1721,0.1717,0.1713,0.1756,0.1756,0.1755,0.1755,0,0.0979,0.1029,0.1079,0.1152,0.1213,0.1274,0.1352,0.1383,0.1495,0.1601,0.1642,0.1674,0.1735,0.1759,0.1787,0.178,0.1839,0.1817,0.1821,0.1752,0.1723,0.1708,0.1707,0.1747,0.1748,0.1748,0.1749,0,0.0952,0.0973,0.104,0.1095,0.1165,0.1196,0.1252,0.1305,0.1368,0.1513,0.1524,0.1623,0.1715,0.1711,0.1732,0.1727,0.1689,0.1619,0.1632,0.1642,0.1573,0.1516,0.1476,0,0,0,0,0,0.0913,0.0924,0.0973,0.1022,0.1086,0.1127,0.1222,0.1279,0.1392,0.1383,0.145,0.1494,0.153,0.1586,0.1554,0.1679,0.1698,0.1635,0.1625,0.1702,0.1711,0.1641,0,0,0,0,0,0,0.0884,0.0923,0.0943,0.0948,0.0965,0.1023,0.108,0.1159,0.1162,0.1282,0.131,0.1402,0.1461,0.1527,0.1522,0.1539,0.1503,0.1703,0.1699,0.1696,0.1705,0.1712,0.1644,0,0,0,0,0]},{"header":{"parameterUnit":"m.s-1","parameterCategory":2,"la1":30.2991,"la2":30.254,"lo1":-89.0895,"lo2":-89.0444,"dy":0.0017,"dx":0.0017,"nx":28,"ny":28,"refTime":"2025-04-07T03:00:00:Z","depth":"4","parameterNumber":3,"parameterNumberName":"V-component_of_CURRENTS"},"data":[0,0,0,0,0,0,0,0,0,0,0,0,0,0,0,0,0,0,0,0,0,0,0,0,0,0,0,0,0,0,0,0,0,0,0,0,0,0,0,0,0,0,0,0,0,0,0,0,0,0,0,0,0,0,0,0,0,0,0.0363,0.0362,0,0.0337,0.0336,0.0336,0.0315,0.0315,0.0315,0.0315,0.026,0.0259,0.0257,0,0,0,0,0,0,0,0,0,0,0,0,0,0.0363,0.0363,0.0363,0.0362,0.0362,0.0337,0.0336,0.0336,0.0315,0.0315,0.0315,0.0315,0.0261,0.0259,0.0257,0,0,0,0,0,0,0,0,0,0,0,0,0,0.035,0.0363,0.0363,0.0351,0.035,0.0337,0.0336,0.0335,0.0315,0.0315,0.0315,0.0315,0.0261,0.0259,0.0257,0.0241,0,0,0.025,0.0249,0,0,0,0,0,0,0,0,0.0351,0.035,0.0353,0.0352,0.0351,0.0332,0.0317,0.0303,0.0315,0.0325,0.0315,0.0315,0.0284,0.0279,0.027,0.0238,0.0236,0.025,0.0248,0.0247,0.0247,0,0,0,0,0,0,0,0.0352,0.035,0.0349,0.0353,0.0352,0.0337,0.0336,0.0314,0.0301,0.0324,0.0323,0.0325,0.0282,0.0273,0.0269,0.0235,0.025,0.0248,0.0246,0.0245,0.0131,0.013,0,0,0,0,0,0,0.0363,0.0352,0.035,0.0349,0.0355,0.0338,0.0335,0.0335,0.0302,0.0298,0.0325,0.0325,0.0276,0.0272,0.0267,0.0219,0.0247,0.0245,0.0244,0.0133,0.0131,0.0129,0,0,0,0,0,0,0.0363,0.0363,0.0351,0.0352,0.035,0.0338,0.0338,0.0335,0.032,0.0304,0.0299,0.0314,0.0276,0.027,0.0244,0.0218,0.0244,0.0242,0.0135,0.0132,0.013,0.0141,0,0,0,0,0,0,0.0363,0.0363,0.0368,0.0353,0.035,0.0342,0.0338,0.0334,0.0323,0.0322,0.0292,0.0287,0.0276,0.0248,0.0242,0.0216,0.024,0.0137,0.0134,0.0131,0.0143,0.0139,0.0136,0,0,0,0,0,0.0363,0.0366,0.0368,0.0368,0.0357,0.0342,0.0339,0.0329,0.0322,0.0315,0.0296,0.0288,0.0223,0.0245,0.0239,0.0211,0.0138,0.0135,0.0131,0.0144,0.014,0.0137,0,0,0,0,0,0,0.0366,0.0364,0.0366,0.0369,0.0358,0.034,0.0334,0.0325,0.0303,0.03,0.028,0.0274,0.0235,0.0219,0.0245,0.0164,0.0173,0.0168,0.0185,0.0181,0.0178,0.0198,0.0238,0,0,0,0,0,0.0372,0.0376,0.0367,0.037,0.0362,0.0346,0.034,0.0332,0.0313,0.0303,0.0282,0.025,0.0214,0.0198,0.0168,0.0135,0.013,0.0106,0.0102,0.01,0.0108,0.0088,0.0085,0.0117,0.0117,0.0117,0,0,0.0375,0.0375,0.0378,0.0371,0.0359,0.0342,0.0341,0.0328,0.031,0.03,0.0265,0.0241,0.0202,0.0162,0.0142,0.0148,0.0083,0.0095,0.0094,0.0104,0.0084,0.0081,0.0079,0.0114,0.0115,0.0115,0,0,0.0372,0.0379,0.0374,0.0363,0.0351,0.0341,0.0336,0.0314,0.03,0.027,0.025,0.022,0.0166,0.014,0.0116,0.0075,0.0067,0.0049,0.0053,0.0033,0.0031,0.0029,0.0009,0.0006,0.0049,0.0049,0.0049,0,0.0374,0.0371,0.0369,0.0353,0.0349,0.0337,0.0324,0.0301,0.0275,0.0268,0.0258,0.0185,0.0154,0.011,0.009,0.007,0.006,0.0077,0.0032,0.0031,0.0029,0.0009,0.0005,0.0049,0.0049,0.0049,0.0049,0,0.0358,0.0356,0.0348,0.033,0.0322,0.0311,0.0288,0.0274,0.0257,0.0242,0.0202,0.0165,0.013,0.0098,0.008,0.0041,0.0037,0.0034,0.0053,0.0027,0.0006,0.0002,0.0049,0.0049,0.0049,0.0049,0,0,0.0355,0.0343,0.034,0.0341,0.0314,0.0312,0.0279,0.0261,0.0258,0.0215,0.0204,0.0131,0.0128,0.0101,0.0072,0.0047,0.0015,0.0036,0.0034,0.0035,-0.0029,-0.0033,-0.0038,0.0009,0.0009,0.0008,-0.0041,0,0.0343,0.0331,0.0323,0.0312,0.0305,0.0293,0.0275,0.0259,0.0241,0.0227,0.0182,0.0158,0.0121,0.0113,0.0078,0.0036,0.0006,0.0029,-0.0021,-0.0022,-0.0006,-0.0042,0.0007,-0.0044,-0.0045,-0.0045,-0.0046,0,0.0323,0.0326,0.032,0.0328,0.0324,0.0315,0.0315,0.0297,0.0269,0.0256,0.0226,0.0201,0.0151,0.0129,0.0047,0.0065,0.0018,-0.0018,-0.0021,-0.0026,-0.0034,-0.0014,-0.0053,-0.0052,-0.0052,-0.0051,-0.0051,0,0.0334,0.0325,0.0334,0.033,0.0327,0.0329,0.0326,0.0309,0.0316,0.0283,0.029,0.0227,0.0207,0.0136,0.0055,0.0053,-0.0028,-0.0037,-0.0089,-0.0089,-0.0071,-0.0069,-0.0094,-0.0094,-0.0094,-0.0094,-0.0094,0,0.0326,0.0333,0.0345,0.0348,0.0372,0.0356,0.0378,0.0364,0.0361,0.0378,0.0316,0.0315,0.021,0.0152,0.0069,-0.0022,-0.0019,-0.0091,-0.0104,-0.007,-0.0067,-0.0075,-0.0072,-0.0096,-0.0095,-0.0095,-0.0095,0,0.0331,0.0333,0.0352,0.0366,0.0377,0.0394,0.0424,0.0443,0.0428,0.0447,0.0442,0.0383,0.0302,0.0196,0.0081,0.0008,-0.0084,-0.0118,-0.0074,-0.0082,-0.0137,-0.0133,-0.0179,-0.018,-0.018,-0.0181,-0.0181,0,0.0332,0.0341,0.0379,0.0404,0.0413,0.0444,0.0471,0.0474,0.05,0.0492,0.0507,0.0438,0.0383,0.0223,0.0097,-0.0065,-0.0091,-0.0143,-0.0148,-0.0139,-0.0146,-0.0142,-0.0137,-0.0182,-0.0182,-0.0182,-0.0182,0,0.0341,0.036,0.0386,0.0441,0.0478,0.0524,0.0561,0.0589,0.0594,0.0585,0.0566,0.0474,0.038,0.0236,0.0106,-0.0011,-0.0113,-0.0149,-0.0149,-0.0154,-0.0143,-0.0148,-0.0143,-0.0184,-0.0184,-0.0184,-0.0184,0,0.0361,0.0388,0.0431,0.0481,0.0536,0.0592,0.0605,0.0633,0.0654,0.064,0.0632,0.0517,0.0446,0.0265,0.0148,0.0027,-0.0007,-0.0051,-0.0056,-0.0056,-0.0012,0.0021,0.0018,0,0,0,0,0,0.0378,0.0417,0.0468,0.0529,0.0585,0.0621,0.0666,0.0674,0.0681,0.0678,0.0657,0.0567,0.0385,0.0304,0.0185,0.0131,-0.0032,-0.0015,-0.0086,-0.0194,-0.0192,-0.0163,0,0,0,0,0,0,0.0392,0.0445,0.0475,0.0564,0.0613,0.0681,0.0715,0.0716,0.0711,0.0693,0.0603,0.0538,0.0365,0.0462,0.0187,0.0148,0.0085,-0.0104,-0.0107,-0.0195,-0.0193,-0.0191,-0.0161,0,0,0,0,0]}]]